Home   Weather   Cadiz   Past weeks

Flag for Spain Past Weather in Cadiz, Cádiz, Spain — Yesterday and Last 2 Weeks

Now
66 °F

Passing clouds.


Feels Like: 66 °F
Forecast: 57 / 67 °F
Wind: 22 mph from Southeast

Location: Rota Airport

Current Time: Dec 9, 2016 at 12:33:33 pm

Latest Report: Dec 9, 2016 at 12:00 pm


Visibility: N/A

Pressure: 30.39 "Hg

Humidity: 68%

Dew Point: 55 °F

Location of CadizLocation

Past Weather in Cadiz — Graph

°F

Cadiz Temperature Yesterday

Maximum temperature yesterday: 66 °F (at 3:00 pm)
Minimum temperature yesterday: 50 °F (at 7:00 am)
Average temperature yesterday: 58 °F

High & Low Weather Summary for the Past Weeks

 TemperatureHumidityPressure
High70 °F (Dec 6, 4:00 pm)100% (Nov 26, 10:00 am)30.39 "Hg (Nov 26, 10:00 am)
Low46 °F (Nov 28, 7:00 am)59% (Nov 29, 6:00 pm)29.59 "Hg (Nov 26, 2:00 am)
Average58 °F85%29.98 "Hg
* Reported Nov 24 11:00 am — Dec 9 11:00 am, Cadiz, Weather by CustomWeather, © 2016

Note: Actual official high and low records may vary slightly from our data, if they occured in-between our weather recording intervals... More about our weather records

Advertising

Cadiz Weather History for the Previous 24 Hours

Scroll right to see more
 ConditionsComfort  
Time TempWeatherWind HumidityBarometerVisibility
11:00 am
Fri, Dec 9
64 °FPassing clouds.20 mph73%30.39 "HgN/A
10:00 am63 °FSunny.20 mph77%30.36 "Hg10 mi
9:00 am61 °FPassing clouds.14 mph83%30.36 "HgN/A
8:00 am61 °FClear.17 mph77%30.33 "Hg10 mi
7:00 am61 °FClear.17 mph77%30.33 "Hg10 mi
6:00 am61 °FPassing clouds.21 mph77%30.33 "HgN/A
5:00 am61 °FClear.21 mph77%30.33 "Hg10 mi
4:00 am61 °FPassing clouds.18 mph77%30.33 "HgN/A
3:00 am61 °FClear.18 mph83%30.33 "Hg10 mi
2:00 am61 °FClear.18 mph83%30.36 "Hg10 mi
1:00 am61 °FClear.16 mph83%30.36 "Hg10 mi
12:00 am61 °FPassing clouds.17 mph83%30.36 "HgN/A
11:00 pm
Thu, Dec 8
61 °FClear.12 mph83%30.36 "Hg10 mi
10:00 pm59 °FPassing clouds.8 mph82%30.39 "HgN/A
9:00 pm59 °FClear.9 mph77%30.36 "Hg10 mi
8:00 pm59 °FClear.13 mph77%30.36 "Hg10 mi
7:00 pm61 °FPassing clouds.17 mph72%30.36 "HgN/A
6:00 pm63 °FPassing clouds.15 mph68%30.33 "HgN/A
5:00 pm64 °FPassing clouds.18 mph64%30.33 "HgN/A
4:00 pm64 °FPassing clouds.22 mph64%30.33 "HgN/A
3:00 pm66 °FPassing clouds.24 mph60%30.33 "HgN/A
2:00 pm64 °FPassing clouds.23 mph60%30.33 "HgN/A
1:00 pm64 °FPassing clouds.20 mph64%30.36 "HgN/A
12:00 pm64 °FPassing clouds.18 mph64%30.39 "HgN/A
Weather by CustomWeather, © 2016

See weather overviewHow to use our weather pages